[[{"header":{"parameterUnit":"m.s-1","parameterCategory":1,"la1":30.2991,"la2":30.254,"lo1":-89.0895,"lo2":-89.0444,"dy":0.0017,"dx":0.0017,"nx":28,"ny":28,"refTime":"2025-05-24T21:00:00:Z","depth":0,"parameterNumber":2,"parameterNumberName":"U-component_of_WINDS"},"data":[0,0,0,0,0,0,0,0,0,0,0,0,0,0,0,0,0,0,0,0,0,0,0,0,0,0,0,0,0,0,0,0,0,0,0,0,0,0,0,0,0,0,0,0,0,0,0,0,0,0,0,0,0,0,0,0,0,0,0.9924,0.9925,0,1.0,1.0001,1.0002,1.001,1.001,1.0009,1.0008,1.0086,1.0089,1.0091,0,0,0,0,0,0,0,0,0,0,0,0,0,0.9785,0.9787,0.9924,0.9925,0.9926,1.0,1.0001,1.0002,1.001,1.001,1.0009,1.0008,1.0085,1.0088,1.0092,0,0,0,0,0,0,0,0,0,0,0,0,0,0.9851,0.9788,0.9924,0.9939,0.9941,1.0,1.0001,1.0002,1.0011,1.0009,1.0008,1.0007,1.0084,1.0088,1.0092,1.0141,0,0,1.0105,1.0107,0,0,0,0,0,0,0,0,0.9848,0.9856,0.9936,0.9938,0.9941,0.9995,0.998,1.0049,1.0011,0.9984,1.0008,1.0007,1.0056,1.0063,1.008,1.0144,1.0148,1.0105,1.0108,1.011,1.0111,0,0,0,0,0,0,0,0.9843,0.9853,0.9954,0.9937,0.994,0.9942,0.995,0.9993,1.0026,0.9986,0.9987,0.9996,1.0057,1.0076,1.0081,1.0149,1.0105,1.0109,1.0111,1.0113,1.0255,1.0257,0,0,0,0,0,0,0.9836,0.9849,0.9952,0.9956,0.989,0.9945,0.9954,0.9978,1.0025,1.0031,0.9997,0.9996,1.0069,1.0077,1.0084,1.0143,1.0109,1.0113,1.0116,1.0254,1.0256,1.0257,0,0,0,0,0,0,0.9833,0.9845,0.9949,0.9903,0.9916,0.9949,0.9976,0.998,0.9999,1.0033,1.0039,1.001,1.0068,1.0078,1.0126,1.0146,1.0115,1.0119,1.0253,1.0255,1.0256,1.0262,0,0,0,0,0,0,0.9828,0.9843,0.9863,0.9903,0.9919,0.999,0.9977,0.9983,1.0006,1.0005,1.0047,1.0052,1.0068,1.012,1.013,1.0151,1.0122,1.0251,1.0254,1.0256,1.026,1.0264,1.0267,0,0,0,0,0,0.9823,0.9862,0.9864,0.9876,0.9944,0.9991,1.0,1.0017,1.0007,1.0027,1.0049,1.0051,1.0142,1.0125,1.0137,1.0159,1.025,1.0253,1.0256,1.0259,1.0263,1.0267,0,0,0,0,0,0,0.9823,0.9867,0.987,0.9923,0.9953,0.9992,1.0017,1.0022,1.0055,1.0054,1.0074,1.0083,1.013,1.0149,1.0129,1.0207,1.0195,1.02,1.0193,1.0198,1.0201,1.0195,1.0126,0,0,0,0,0,0.9829,0.9864,0.9901,0.9943,0.9958,0.9985,1.0006,1.0017,1.0049,1.0062,1.0088,1.0119,1.0154,1.0177,1.0212,1.0263,1.0271,1.0284,1.0287,1.029,1.0294,1.0321,1.0327,1.0267,1.0267,1.0266,0,0,0.9842,0.987,0.9891,0.9944,0.9969,1.0004,0.9996,1.0034,1.006,1.0068,1.0114,1.0134,1.017,1.0219,1.0242,1.0237,1.0312,1.0294,1.0295,1.0298,1.0325,1.033,1.0335,1.0269,1.0268,1.0268,0,0,0.9883,0.9908,0.9946,0.997,1.0008,1.0025,1.0034,1.0072,1.0086,1.0132,1.0139,1.017,1.0231,1.0255,1.0276,1.0324,1.0327,1.0335,1.0352,1.0378,1.0383,1.0387,1.0403,1.0409,1.0339,1.0339,1.0339,0,0.9894,0.9947,0.9965,1.0002,1.0024,1.0033,1.007,1.0093,1.014,1.0155,1.0148,1.0224,1.0248,1.0303,1.0314,1.0331,1.0341,1.033,1.0381,1.0385,1.039,1.0405,1.0411,1.0339,1.0339,1.0339,1.0339,0,0.9958,0.9995,1.0021,1.0065,1.0091,1.0128,1.015,1.0174,1.0182,1.0199,1.0246,1.0276,1.0316,1.0329,1.0338,1.0385,1.038,1.0377,1.0365,1.0396,1.041,1.0417,1.034,1.034,1.034,1.034,0,0,1.0002,1.0054,1.0063,1.0083,1.0124,1.0152,1.0189,1.0228,1.0247,1.0278,1.0309,1.036,1.0356,1.038,1.0391,1.0414,1.0448,1.0408,1.0409,1.0413,1.05,1.0501,1.0508,1.045,1.0452,1.0453,1.0496,0,1.0047,1.0113,1.0129,1.0186,1.0219,1.0227,1.0259,1.0287,1.0304,1.0334,1.0353,1.0388,1.0382,1.0395,1.0418,1.0439,1.0466,1.0436,1.0478,1.048,1.0469,1.0516,1.0518,1.0558,1.0502,1.0503,1.0504,0,1.0109,1.014,1.02,1.0235,1.0249,1.0278,1.0314,1.0343,1.0374,1.0385,1.041,1.0418,1.0456,1.0442,1.0494,1.0473,1.0491,1.0504,1.0506,1.051,1.0493,1.052,1.0571,1.0576,1.0514,1.0513,1.0512,0,1.0133,1.0191,1.0233,1.025,1.0292,1.0312,1.033,1.036,1.0382,1.0413,1.0427,1.0462,1.0482,1.0508,1.0526,1.0514,1.0575,1.0563,1.0584,1.0584,1.0597,1.0596,1.065,1.061,1.061,1.0609,1.0609,0,1.0181,1.0217,1.0245,1.0271,1.0311,1.0328,1.0367,1.0386,1.0412,1.0441,1.045,1.0478,1.0499,1.0529,1.0543,1.0582,1.0591,1.06,1.0603,1.0599,1.0598,1.0611,1.0608,1.0611,1.0611,1.061,1.061,0,1.0215,1.0235,1.0282,1.0317,1.0327,1.0355,1.0385,1.041,1.0427,1.0464,1.0473,1.05,1.0535,1.0555,1.06,1.0609,1.0653,1.0655,1.0642,1.0643,1.0663,1.0661,1.0728,1.0737,1.0691,1.0691,1.0691,0,1.0244,1.0271,1.0309,1.0329,1.0348,1.0381,1.0402,1.042,1.0443,1.0479,1.05,1.0536,1.0565,1.0621,1.0644,1.0678,1.068,1.0701,1.0685,1.068,1.0679,1.0677,1.0679,1.0704,1.0704,1.0705,1.0705,0,1.0293,1.0301,1.0332,1.0366,1.0392,1.042,1.0448,1.0464,1.0486,1.051,1.0546,1.0569,1.0614,1.0649,1.0685,1.0703,1.0707,1.071,1.0716,1.0712,1.0703,1.0707,1.0649,1.0708,1.0708,1.0708,1.0707,1.0707,1.0324,1.0348,1.0379,1.0413,1.0435,1.046,1.0485,1.0505,1.0535,1.0573,1.0582,1.0619,1.0648,1.0696,1.0715,1.0744,1.074,1.075,1.0753,1.0755,1.0755,1.0699,1.0751,1.0751,1.0751,1.0751,1.0751,0,1.0373,1.0392,1.0423,1.0461,1.0487,1.0489,1.0519,1.0541,1.0574,1.0601,1.0629,1.067,1.0704,1.0728,1.0762,1.0781,1.0784,1.0789,1.0788,1.0791,1.0757,1.0747,1.0786,1.0786,1.0786,1.0786,1.0786,1.0786,1.0401,1.0441,1.0453,1.0504,1.0523,1.056,1.0577,1.06,1.0621,1.0666,1.0694,1.071,1.0735,1.0771,1.0801,1.0808,1.0819,1.0824,1.0831,1.0798,1.0794,1.079,1.0781,1.0827,1.0827,1.0863,1.0863,1.0864]},{"header":{"parameterUnit":"m.s-1","parameterCategory":1,"la1":30.2991,"la2":30.254,"lo1":-89.0895,"lo2":-89.0444,"dy":0.0017,"dx":0.0017,"nx":28,"ny":28,"refTime":"2025-05-24T21:00:00:Z","depth":0,"parameterNumber":3,"parameterNumberName":"V-component_of_WINDS"},"data":[0,0,0,0,0,0,0,0,0,0,0,0,0,0,0,0,0,0,0,0,0,0,0,0,0,0,0,0,0,0,0,0,0,0,0,0,0,0,0,0,0,0,0,0,0,0,0,0,0,0,0,0,0,0,0,0,0,0,2.5756,2.5756,0,2.5754,2.5754,2.5754,2.5702,2.5701,2.5699,2.5698,2.5696,2.5697,2.5698,0,0,0,0,0,0,0,0,0,0,0,0,0,2.5714,2.5715,2.5756,2.5756,2.5756,2.5754,2.5754,2.5754,2.5702,2.5701,2.5699,2.5698,2.5696,2.5697,2.5698,0,0,0,0,0,0,0,0,0,0,0,0,0,2.5724,2.5715,2.5756,2.573,2.5727,2.5754,2.5754,2.5754,2.5703,2.5701,2.5699,2.5697,2.5695,2.5697,2.5699,2.575,0,0,2.5704,2.5705,0,0,0,0,0,0,0,0,2.5723,2.5726,2.5734,2.5732,2.5729,2.5726,2.5738,2.5753,2.5703,2.5712,2.5698,2.5696,2.5708,2.5708,2.5712,2.575,2.575,2.5704,2.5705,2.5706,2.5706,0,0,0,0,0,0,0,2.5723,2.5725,2.5755,2.5734,2.5731,2.5718,2.5717,2.5741,2.5721,2.5711,2.5707,2.5708,2.5706,2.5711,2.5712,2.575,2.5704,2.5706,2.5707,2.5707,2.5828,2.583,0,0,0,0,0,0,2.5726,2.5725,2.5755,2.5755,2.5721,2.572,2.5719,2.5729,2.5721,2.5717,2.571,2.5705,2.5709,2.571,2.5712,2.577,2.5706,2.5708,2.5709,2.5826,2.5829,2.5831,0,0,0,0,0,0,2.5725,2.5729,2.5755,2.5739,2.5741,2.5723,2.5735,2.573,2.5735,2.572,2.5716,2.5718,2.5707,2.5709,2.574,2.577,2.5708,2.571,2.5824,2.5827,2.583,2.5889,0,0,0,0,0,0,2.5724,2.5729,2.5749,2.574,2.5742,2.5785,2.5736,2.5732,2.5738,2.5733,2.5727,2.5724,2.5706,2.5738,2.5742,2.5771,2.5711,2.5821,2.5825,2.5829,2.5885,2.5894,2.5902,0,0,0,0,0,2.5723,2.5765,2.575,2.5754,2.5767,2.5786,2.5788,2.5767,2.5741,2.576,2.575,2.5724,2.5766,2.5742,2.5746,2.5776,2.5819,2.5824,2.5828,2.5881,2.5892,2.5902,0,0,0,0,0,0,2.5778,2.5764,2.5746,2.5788,2.5789,2.5778,2.5801,2.578,2.5788,2.5782,2.5755,2.5754,2.579,2.5786,2.5759,2.5825,2.5788,2.5794,2.5826,2.5837,2.5845,2.5845,2.5713,0,0,0,0,0,2.5795,2.5812,2.5799,2.5837,2.5838,2.582,2.5828,2.5811,2.5811,2.5811,2.5804,2.5804,2.5818,2.5827,2.5838,2.5884,2.5881,2.5906,2.5915,2.5922,2.5928,2.5951,2.5962,2.5847,2.5847,2.5847,0,0,2.583,2.5825,2.5837,2.5848,2.5846,2.5865,2.582,2.5842,2.5855,2.5814,2.5843,2.5838,2.5837,2.5876,2.5892,2.5873,2.5959,2.5929,2.5934,2.5936,2.5957,2.5968,2.5977,2.585,2.5849,2.5849,0,0,2.5903,2.5901,2.5932,2.5932,2.5931,2.5918,2.5926,2.5918,2.5913,2.5942,2.5911,2.5926,2.595,2.5951,2.5954,2.6027,2.6003,2.6032,2.6078,2.6101,2.611,2.6118,2.6143,2.6153,2.6037,2.6037,2.6037,0,2.5947,2.5974,2.5951,2.5974,2.5979,2.5943,2.5974,2.5975,2.5977,2.5982,2.5961,2.5989,2.5986,2.6024,2.6042,2.6046,2.6053,2.6032,2.611,2.6118,2.6125,2.6149,2.6159,2.6041,2.604,2.604,2.604,0,2.6028,2.6047,2.6072,2.6075,2.6083,2.611,2.6091,2.6101,2.6084,2.6074,2.6104,2.6099,2.6108,2.6116,2.6099,2.6151,2.614,2.6115,2.6077,2.614,2.6162,2.6171,2.6046,2.6045,2.6043,2.6043,0,0,2.6136,2.6126,2.6135,2.6136,2.6132,2.6146,2.6171,2.6181,2.619,2.6194,2.6214,2.6235,2.6211,2.6215,2.6198,2.6219,2.6277,2.6191,2.6191,2.6207,2.6333,2.6352,2.6363,2.6261,2.6262,2.6264,2.6333,0,2.6206,2.6249,2.6228,2.6273,2.629,2.6256,2.6278,2.6278,2.6269,2.6282,2.6271,2.6286,2.6255,2.6257,2.6276,2.6266,2.6302,2.626,2.6279,2.628,2.628,2.6374,2.6394,2.646,2.6342,2.6343,2.6344,0,2.6294,2.6301,2.6348,2.634,2.6346,2.6366,2.6373,2.6386,2.6385,2.6377,2.6381,2.636,2.6383,2.6347,2.6379,2.6351,2.6358,2.6354,2.6356,2.6357,2.6316,2.6377,2.648,2.649,2.6358,2.6357,2.6356,0,2.6368,2.6389,2.6419,2.6421,2.6413,2.6428,2.6425,2.6422,2.6429,2.6435,2.6439,2.6447,2.6452,2.6459,2.6441,2.6415,2.6475,2.6437,2.6469,2.647,2.6483,2.6482,2.6588,2.6488,2.6488,2.6488,2.6487,0,2.6449,2.6478,2.6452,2.647,2.6503,2.6479,2.6511,2.6505,2.6502,2.6519,2.649,2.6506,2.648,2.6494,2.6479,2.6508,2.6511,2.6505,2.65,2.6507,2.6508,2.6511,2.6505,2.649,2.649,2.6489,2.6489,0,2.6536,2.652,2.655,2.654,2.6538,2.6562,2.6554,2.657,2.6559,2.6581,2.6584,2.6567,2.6582,2.6563,2.6576,2.6567,2.6606,2.6595,2.6606,2.6603,2.6636,2.6633,2.6747,2.676,2.6652,2.6653,2.6654,0,2.6589,2.6611,2.6603,2.6612,2.6611,2.6626,2.6633,2.661,2.6618,2.6618,2.6635,2.6647,2.6655,2.668,2.6669,2.6678,2.6667,2.6706,2.6668,2.6674,2.6667,2.6666,2.6668,2.6714,2.6715,2.6717,2.6717,0,2.6683,2.6674,2.6685,2.6693,2.6702,2.6707,2.671,2.6719,2.6695,2.6706,2.672,2.6727,2.674,2.6752,2.6759,2.6756,2.6733,2.6729,2.6737,2.6744,2.675,2.6747,2.6627,2.6727,2.6726,2.6725,2.6725,2.6724,2.6754,2.6772,2.6769,2.6782,2.6782,2.6786,2.6801,2.6792,2.6803,2.6812,2.6798,2.6816,2.6814,2.682,2.682,2.6834,2.6817,2.6828,2.6831,2.6834,2.6839,2.6748,2.6835,2.6834,2.6834,2.6834,2.6834,0,2.6847,2.6843,2.6856,2.6861,2.6871,2.6848,2.6851,2.6861,2.6877,2.6877,2.6886,2.6902,2.6914,2.6903,2.6913,2.6926,2.6916,2.6929,2.6928,2.6928,2.6854,2.6846,2.6937,2.6937,2.6937,2.6937,2.6937,2.6937,2.6896,2.6925,2.6915,2.6944,2.694,2.6957,2.696,2.6963,2.6963,2.6983,2.6993,2.6986,2.6981,2.699,2.7,2.6997,2.7001,2.7019,2.7012,2.6943,2.6933,2.6923,2.6915,2.702,2.702,2.7084,2.7085,2.7085]}]]